This is the latest recevied weather packets stored in our database for station/object IW8XOI-10. If no packets are shown the sender has not sent any weather packets the latest 10 day(s).
| Time | Temp. | Humidity | Pressure | Rain* | Wind** | Luminosity | Snow |
|---|---|---|---|---|---|---|---|
| 1787866927 | 39.44° C | 31% | 1032.4 hPa | - | - | - | - |
| 1787863327 | 39.44° C | 31% | 1032.6 hPa | - | - | - | - |
| 1787859727 | 40.56° C | 31% | 1032.5 hPa | - | - | - | - |
| 1787856128 | 41.11° C | 31% | 1032.1 hPa | - | - | - | - |
| 1787852528 | 41.67° C | 31% | 1031.5 hPa | - | - | - | - |
| 1787848928 | 41.67° C | 31% | 1031.3 hPa | - | - | - | - |
| 1787845328 | 41.11° C | 31% | 1031.1 hPa | - | - | - | - |
| 1787841728 | 40° C | 32% | 1031 hPa | - | - | - | - |
| 1787838128 | 39.44° C | 31% | 1030.9 hPa | - | - | - | - |
| 1787834528 | 38.33° C | 32% | 1031 hPa | - | - | - | - |
| 1787830928 | 36.67° C | 34% | 1031.3 hPa | - | - | - | - |
| 1787827330 | 35° C | 35% | 1031.8 hPa | - | - | - | - |
| 1787823731 | 33.89° C | 36% | 1032 hPa | - | - | - | - |
| 1787820126 | 32.22° C | 37% | 1031.5 hPa | - | - | - | - |
| 1787816526 | 32.22° C | 37% | 1030.8 hPa | - | - | - | - |
| 1787812927 | 31.67° C | 37% | 1030.7 hPa | - | - | - | - |
| 1787809326 | 31.67° C | 37% | 1030.9 hPa | - | - | - | - |
| 1787805726 | 31.67° C | 36% | 1030.6 hPa | - | - | - | - |
| 1787802126 | 32.22° C | 36% | 1030.5 hPa | - | - | - | - |
| 1787798526 | 32.78° C | 36% | 1030.2 hPa | - | - | - | - |
| 1787794926 | 33.33° C | 35% | 1030 hPa | - | - | - | - |
| 1787791326 | 33.89° C | 34% | 1029.7 hPa | - | - | - | - |
| 1787787726 | 34.44° C | 33% | 1029.8 hPa | - | - | - | - |
| 1787784127 | 35° C | 32% | 1029.9 hPa | - | - | - | - |
| 1787780569 | 35.56° C | 31% | 1030.7 hPa | - | - | - | - |
* Rain since midnight (hover to see other rain measurements)
** Current wind speed in m/s (hover to see current wind gust speed)